ZHUHAI-1 01 (CAS-4A) (42761 NORAD) Tracking and Keplerian Element Data
This shows tracking and keplerian element data for the satellite.
Feedback or suggestion? Click here.
Element | Value |
Catalog | 42761 |
Name | ZHUHAI-1 01 (CAS-4A) |
Epoch Orbit | 19886 |
Epoch Day | 21.07207258 |
Epoch Year | 2021 |
RAAN | 270.3874 |
Inclination | 43.0184 |
Eccentricity | 0.0011377 |
Argument of Perigee | 318.878 |
Mean Anonmoly | 194.3276 |
Mean Motion | 15.10126751 |
Decay Rate | 1.2E-06 |
L1 | 1 42761U 17034D 21021.07207258 .00000120 00000-0 20631-4 0 9991 |
L2 | 2 42761 43.0184 270.3874 0011377 318.8780 194.3276 15.10126751198860 |
Live tracking and technical data element details for ZHUHAI-1 01 (CAS-4A) (NORAD 42761). ZHUHAI-1 01 (CAS-4A) can be tracked NOW for your location showing map with azimuth and elevation plus other details from your city location.
Track the satellite on the map from your city or location and see movement details for azimuth, elevation, latitude, longitude, range, height, and movement on the map or in text.
IsCatalogInMostPopularTable: catalog: 42761, numindb: 504
Update: records affected: 1
GetName: 42761 ZHUHAI-1 01 (CAS-4A)
Hit Count: updated at: Sat, 23 Jan 2021 05:41:33 GMT